A/2021 E2

Japanese version
Home page
Updated on April 29, 2021

---------------------------------------------------------------------

* Profile

Discovery Date March 7, 2021
Magnitude 21.19 mag
Discoverer Mt. Lemmon Survey

* Orbital Elements

Epoch 2020 Dec. 17.0 TT = JDT 2459200.5                                         
T 2020 Dec. 10.04160 TT                                 Rudenko                 
q   2.2863173            (2000.0)            P               Q                  
z  +0.0071617      Peri.  342.30413     -0.88028613     -0.47270330             
 +/-0.0018708      Node   190.79031     -0.40485494     +0.70380646             
e   0.9836262      Incl.  167.47687     -0.24736372     +0.53029054             
H   17.5                                                                        
From 66 observations 2021 Mar. 7-Apr. 2, mean residual 0".5.                    

* Magnitudes Graph

        H = 17.5  G = 0.15

---------------------------------------------------------------------

The orbital elements are published on M.P.E.C. 2021-H143.
The magnitudes graphs are made with Comet for Windows.

---------------------------------------------------------------------

Copyright(C) Seiichi Yoshida (comet@aerith.net). All rights reserved.